Date,TemperatureHighF,TemperatureAvgF,TemperatureLowF,DewpointHighF,DewpointAvgF,DewpointLowF,HumidityHigh,HumidityAvg,HumidityLow,PressureMaxIn,PressureMinIn,WindSpeedMaxMPH,WindSpeedAvgMPH,GustSpeedMaxMPH,PrecipitationSumIn
2013-1-2,30.4,26.3,19.2,21.0,17.5,14.0,85,70,55,30.19,30.02,10,2,21,0.00
2013-1-3,38.6,26.4,13.7,21.0,17.0,11.0,89,70,48,30.21,30.12,13,2,17,0.00
2013-1-4,31.7,29.3,27.8,22.0,20.8,20.0,74,70,66,30.19,30.12,21,7,32,0.00
2013-1-5,43.9,35.6,28.6,28.0,23.0,19.0,86,63,39,30.33,30.14,7,2,17,0.00
2013-1-6,40.5,37.5,32.8,32.0,28.0,24.0,82,69,58,30.13,29.99,11,3,20,0.00
2013-1-7,40.4,30.2,18.1,30.0,24.5,16.0,92,79,57,30.42,30.14,13,2,19,0.00
2013-1-8,51.1,29.2,16.4,32.0,22.9,14.0,93,80,38,30.41,30.31,9,1,16,0.00
2013-1-9,52.9,37.6,23.1,45.0,31.5,-99.9,94,82,66,30.42,30.23,16,-8,23,0.01
2013-1-10,53.2,40.1,31.6,36.0,32.2,29.0,92,75,39,30.55,30.39,4,1,15,0.00
2013-1-11,45.7,37.3,31.9,42.0,35.3,30.0,98,92,72,30.38,30.05,4,1,12,0.13
2013-1-12,67.9,33.0,37.4,56.0,-2.2,-99.9,99,60,60,30.11,30.02,10,-324,15,0.00
2013-1-13,-200.0,0.0,200.0,-99.9,-99.9,-99.9,0,0,100,30.02,29.84,0,-999,0,0.00
2013-1-14,-200.0,0.0,200.0,-99.9,-99.9,-99.9,0,0,100,30.21,29.87,0,-999,0,0.00
2013-1-15,-200.0,0.0,200.0,-99.9,-99.9,-99.9,0,0,100,30.21,29.98,0,-999,0,0.00
2013-1-16,44.5,30.2,33.0,41.0,5.4,-99.9,98,68,62,29.99,29.80,8,-217,17,0.13
2013-1-17,40.2,0.9,40.1,28.0,-97.1,-99.9,62,1,62,30.07,29.97,5,-977,17,0.00
2013-1-18,-200.0,0.0,200.0,-99.9,-99.9,-99.9,0,0,100,30.34,30.04,0,-999,0,0.00
2013-1-19,56.1,1.4,55.5,14.0,-97.1,-99.9,19,0,19,30.19,29.79,6,-974,17,0.00
2013-1-20,48.6,0.5,48.6,21.0,-98.6,-99.9,34,0,34,29.98,29.73,8,-988,8,0.00
2013-1-21,-200.0,0.0,200.0,-99.9,-99.9,-99.9,0,0,100,29.98,29.69,0,-999,0,0.00
2013-1-22,-200.0,0.0,200.0,-99.9,-99.9,-99.9,0,0,100,30.06,29.84,0,-999,0,0.00
2013-1-23,-200.0,0.0,200.0,-99.9,-99.9,-99.9,0,0,100,30.11,29.88,0,-999,0,0.00
2013-1-24,-200.0,0.0,200.0,-99.9,-99.9,-99.9,0,0,100,30.34,29.85,0,-999,0,0.00
2013-1-25,-200.0,0.0,200.0,-99.9,-99.9,-99.9,0,0,100,30.33,29.83,0,-999,0,0.00
2013-1-26,-200.0,0.0,200.0,-99.9,-99.9,-99.9,0,0,100,30.28,29.85,0,-999,0,0.00
2013-1-27,-200.0,0.0,200.0,-99.9,-99.9,-99.9,0,0,100,30.39,30.26,0,-999,0,0.00
2013-1-28,-200.0,0.0,200.0,-99.9,-99.9,-99.9,0,0,100,30.25,29.95,0,-999,0,0.00
2013-1-29,-200.0,0.0,200.0,-99.9,-99.9,-99.9,0,0,100,30.02,29.84,0,-999,0,0.00
2013-1-30,-200.0,0.0,200.0,-99.9,-99.9,-99.9,0,0,100,29.83,29.16,0,-999,0,0.00
2013-1-31,-200.0,0.0,200.0,-99.9,-99.9,-99.9,0,0,100,29.72,29.13,0,-999,0,0.00
2013-2-1,-200.0,0.0,200.0,-99.9,-99.9,-99.9,0,0,100,30.17,29.65,0,-999,0,0.00
2013-2-2,-200.0,0.0,200.0,-99.9,-99.9,-99.9,0,0,100,30.16,29.81,0,-999,0,0.00
2013-2-3,-200.0,0.0,200.0,-99.9,-99.9,-99.9,0,0,100,29.82,29.64,0,-999,0,0.00
2013-2-4,-200.0,0.0,200.0,-99.9,-99.9,-99.9,0,0,100,29.88,29.69,0,-999,0,0.00
2013-2-5,-200.0,0.0,200.0,-99.9,-99.9,-99.9,0,0,100,29.79,29.67,0,-999,0,0.00
2013-2-6,-200.0,0.0,200.0,-99.9,-99.9,-99.9,0,0,100,30.18,29.78,0,-999,0,0.00
2013-2-7,-200.0,0.0,200.0,-99.9,-99.9,-99.9,0,0,100,30.22,29.98,0,-999,0,0.00
2013-2-8,-200.0,0.0,200.0,-99.9,-99.9,-99.9,0,0,100,29.98,29.67,0,-999,0,0.00
2013-2-9,-200.0,0.0,200.0,-99.9,-99.9,-99.9,0,0,100,30.23,29.93,0,-999,0,0.00
2013-2-10,-200.0,0.0,200.0,-99.9,-99.9,-99.9,0,0,100,30.25,29.97,0,-999,0,0.00
2013-2-11,-200.0,0.0,200.0,-99.9,-99.9,-99.9,0,0,100,29.97,29.63,0,-999,0,0.00
2013-2-12,-200.0,0.0,200.0,-99.9,-99.9,-99.9,0,0,100,29.87,29.75,0,-999,0,0.00
2013-2-13,-200.0,0.0,200.0,-99.9,-99.9,-99.9,0,0,100,29.82,29.52,0,-999,0,0.00
2013-2-14,-200.0,0.0,200.0,-99.9,-99.9,-99.9,0,0,100,29.86,29.67,0,-999,0,0.00
2013-2-15,-200.0,0.0,200.0,-99.9,-99.9,-99.9,0,0,100,29.90,29.82,0,-999,0,0.00
2013-2-16,-200.0,0.0,200.0,-99.9,-99.9,-99.9,0,0,100,29.87,29.74,0,-999,0,0.00
2013-2-17,-200.0,0.0,200.0,-99.9,-99.9,-99.9,0,0,100,30.05,29.73,0,-999,0,0.00
2013-2-18,-200.0,0.0,200.0,-99.9,-99.9,-99.9,0,0,100,30.16,29.92,0,-999,0,0.00
2013-2-19,-200.0,0.0,200.0,-99.9,-99.9,-99.9,0,0,100,29.91,29.57,0,-999,0,0.00
2013-2-20,-200.0,0.0,200.0,-99.9,-99.9,-99.9,0,0,100,30.03,29.71,0,-999,0,0.00
2013-2-21,-200.0,0.0,200.0,-99.9,-99.9,-99.9,0,0,100,30.16,29.98,0,-999,0,0.00
2013-2-22,-200.0,0.0,200.0,-99.9,-99.9,-99.9,0,0,100,30.17,29.97,0,-999,0,0.00
2013-2-23,-200.0,0.0,200.0,-99.9,-99.9,-99.9,0,0,100,29.97,29.71,0,-999,0,0.00
2013-2-24,-200.0,0.0,200.0,-99.9,-99.9,-99.9,0,0,100,30.00,29.71,0,-999,0,0.00
2013-2-25,-200.0,0.0,200.0,-99.9,-99.9,-99.9,0,0,100,30.07,29.99,0,-999,0,0.00
2013-2-26,-200.0,0.0,200.0,-99.9,-99.9,-99.9,0,0,100,30.03,29.53,0,-999,0,0.00
2013-2-27,-200.0,0.0,200.0,-99.9,-99.9,-99.9,0,0,100,29.58,29.47,0,-999,0,0.00
2013-2-28,-200.0,0.0,200.0,-99.9,-99.9,-99.9,0,0,100,29.64,29.52,0,-999,0,0.00
2013-3-1,-200.0,0.0,200.0,-99.9,-99.9,-99.9,0,0,100,29.79,29.65,0,-999,0,0.00
2013-3-2,-200.0,0.0,200.0,-99.9,-99.9,-99.9,0,0,100,29.77,29.70,0,-999,0,0.00
2013-3-3,-200.0,0.0,200.0,-99.9,-99.9,-99.9,0,0,100,29.82,29.71,0,-999,0,0.00
2013-3-4,-200.0,0.0,200.0,-99.9,-99.9,-99.9,0,0,100,29.95,29.82,0,-999,0,0.00
2013-3-5,-200.0,0.0,200.0,-99.9,-99.9,-99.9,0,0,100,29.93,29.59,0,-999,0,0.00
2013-3-6,-200.0,0.0,200.0,-99.9,-99.9,-99.9,0,0,100,29.96,29.57,0,-999,0,0.00
2013-3-7,-200.0,0.0,200.0,-99.9,-99.9,-99.9,0,0,100,30.11,29.95,0,-999,0,0.00
2013-3-8,-200.0,0.0,200.0,-99.9,-99.9,-99.9,0,0,100,30.26,30.09,0,-999,0,0.00
2013-3-9,-200.0,0.0,200.0,-99.9,-99.9,-99.9,0,0,100,30.27,30.14,0,-999,0,0.00
2013-3-10,-200.0,0.0,200.0,-99.9,-99.9,-99.9,0,0,100,30.17,30.02,0,-999,0,0.00
2013-3-11,-200.0,0.0,200.0,-99.9,-99.9,-99.9,0,0,100,30.02,29.72,0,-999,0,0.00
2013-3-12,-200.0,0.0,200.0,-99.9,-99.9,-99.9,0,0,100,29.89,29.66,0,-999,0,0.00
2013-3-13,-200.0,0.0,200.0,-99.9,-99.9,-99.9,0,0,100,29.97,29.81,0,-999,0,0.00
2013-3-14,-200.0,0.0,200.0,-99.9,-99.9,-99.9,0,0,100,30.05,29.95,0,-999,0,0.00
2013-3-15,-200.0,0.0,200.0,-99.9,-99.9,-99.9,0,0,100,29.98,29.70,0,-999,0,0.00
2013-3-16,-200.0,0.0,200.0,-99.9,-99.9,-99.9,0,0,100,29.77,29.52,0,-999,0,0.00
2013-3-17,-200.0,0.0,200.0,-99.9,-99.9,-99.9,0,0,100,30.08,29.77,0,-999,0,0.00
2013-3-18,-200.0,0.0,200.0,-99.9,-99.9,-99.9,0,0,100,30.08,29.71,0,-999,0,0.00
2013-3-19,-200.0,0.0,200.0,-99.9,-99.9,-99.9,0,0,100,29.85,29.61,0,-999,0,0.00
2013-3-20,-200.0,0.0,200.0,-99.9,-99.9,-99.9,0,0,100,29.86,29.65,0,-999,0,0.00
2013-3-21,-200.0,0.0,200.0,-99.9,-99.9,-99.9,0,0,100,29.77,29.66,0,-999,0,0.00
2013-3-22,-200.0,0.0,200.0,-99.9,-99.9,-99.9,0,0,100,29.88,29.73,0,-999,0,0.00
2013-3-23,-200.0,0.0,200.0,-99.9,-99.9,-99.9,0,0,100,29.89,29.82,0,-999,0,0.00
2013-3-24,-200.0,0.0,200.0,-99.9,-99.9,-99.9,0,0,100,29.86,29.45,0,-999,0,0.00
2013-3-25,-200.0,0.0,200.0,-99.9,-99.9,-99.9,0,0,100,29.58,29.38,0,-999,0,0.00
2013-3-26,-200.0,0.0,200.0,-99.9,-99.9,-99.9,0,0,100,29.93,29.58,0,-999,0,0.00
2013-3-27,-200.0,0.0,200.0,-99.9,-99.9,-99.9,0,0,100,30.04,29.93,0,-999,0,0.00
2013-3-28,-200.0,0.0,200.0,-99.9,-99.9,-99.9,0,0,100,30.13,29.98,0,-999,0,0.00
2013-3-29,-200.0,0.0,200.0,-99.9,-99.9,-99.9,0,0,100,30.15,30.06,0,-999,0,0.00
2013-3-30,-200.0,0.0,200.0,-99.9,-99.9,-99.9,0,0,100,30.13,29.98,0,-999,0,0.00
2013-3-31,-200.0,0.0,200.0,-99.9,-99.9,-99.9,0,0,100,29.98,29.64,0,-999,0,0.00
2013-4-1,-200.0,0.0,200.0,-99.9,-99.9,-99.9,0,0,100,29.87,29.65,0,-999,0,0.00
2013-4-2,-200.0,0.0,200.0,-99.9,-99.9,-99.9,0,0,100,30.05,29.87,0,-999,0,0.00
2013-4-3,-200.0,0.0,200.0,-99.9,-99.9,-99.9,0,0,100,30.25,30.05,0,-999,0,0.00
2013-4-4,-200.0,0.0,200.0,-99.9,-99.9,-99.9,0,0,100,30.25,29.90,0,-999,0,0.00
2013-4-5,-200.0,0.0,200.0,-99.9,-99.9,-99.9,0,0,100,29.99,29.79,0,-999,0,0.00
2013-4-6,-200.0,0.0,200.0,-99.9,-99.9,-99.9,0,0,100,30.18,30.00,0,-999,0,0.00
2013-4-7,-200.0,0.0,200.0,-99.9,-99.9,-99.9,0,0,100,30.04,29.85,0,-999,0,0.00
2013-4-8,-200.0,0.0,200.0,-99.9,-99.9,-99.9,0,0,100,30.01,29.86,0,-999,0,0.00
2013-4-9,-200.0,0.0,200.0,-99.9,-99.9,-99.9,0,0,100,30.05,29.90,0,-999,0,0.00
2013-4-10,-200.0,0.0,200.0,-99.9,-99.9,-99.9,0,0,100,29.94,29.78,0,-999,0,0.00
2013-4-11,-200.0,0.0,200.0,-99.9,-99.9,-99.9,0,0,100,29.87,29.61,0,-999,0,0.00
2013-4-12,-200.0,0.0,200.0,-99.9,-99.9,-99.9,0,0,100,29.75,29.54,0,-999,0,0.00
2013-4-13,-200.0,0.0,200.0,-99.9,-99.9,-99.9,0,0,100,29.90,29.74,0,-999,0,0.00
2013-4-14,-200.0,0.0,200.0,-99.9,-99.9,-99.9,0,0,100,30.06,29.90,0,-999,0,0.00
2013-4-15,-200.0,0.0,200.0,-99.9,-99.9,-99.9,0,0,100,30.13,30.00,0,-999,0,0.00
2013-4-16,-200.0,0.0,200.0,-99.9,-99.9,-99.9,0,0,100,30.15,30.00,0,-999,0,0.00
2013-4-17,-200.0,0.0,200.0,-99.9,-99.9,-99.9,0,0,100,30.14,30.07,0,-999,0,0.00
2013-4-18,-200.0,0.0,200.0,-99.9,-99.9,-99.9,0,0,100,30.12,29.85,0,-999,0,0.00
2013-4-19,-200.0,0.0,200.0,-99.9,-99.9,-99.9,0,0,100,29.85,29.52,0,-999,0,0.00
2013-4-20,-200.0,0.0,200.0,-99.9,-99.9,-99.9,0,0,100,30.28,29.75,0,-999,0,0.00
2013-4-21,-200.0,0.0,200.0,-99.9,-99.9,-99.9,0,0,100,30.46,30.28,0,-999,0,0.00
2013-4-22,-200.0,0.0,200.0,-99.9,-99.9,-99.9,0,0,100,30.42,30.23,0,-999,0,0.00
2013-4-23,-200.0,0.0,200.0,-99.9,-99.9,-99.9,0,0,100,30.25,29.98,0,-999,0,0.00
2013-4-24,-200.0,0.0,200.0,-99.9,-99.9,-99.9,0,0,100,30.03,29.68,0,-999,0,0.00
2013-4-25,-200.0,0.0,200.0,-99.9,-99.9,-99.9,0,0,100,30.24,30.04,0,-999,0,0.00
2013-4-26,-200.0,0.0,200.0,-99.9,-99.9,-99.9,0,0,100,30.36,30.23,0,-999,0,0.00
2013-4-27,-200.0,0.0,200.0,-99.9,-99.9,-99.9,0,0,100,30.31,30.14,0,-999,0,0.00
2013-4-28,-200.0,0.0,200.0,-99.9,-99.9,-99.9,0,0,100,30.15,29.98,0,-999,0,0.00
2013-4-29,-200.0,0.0,200.0,-99.9,-99.9,-99.9,0,0,100,30.00,29.92,0,-999,0,0.00
2013-4-30,-200.0,0.0,200.0,-99.9,-99.9,-99.9,0,0,100,30.19,29.99,0,-999,0,0.00
2013-5-1,-200.0,0.0,200.0,-99.9,-99.9,-99.9,0,0,100,30.30,30.18,0,-999,0,0.00